Tracking 28799 objects as of 18-Apr-2024
HD Live streaming from Space Station
objects crossing your sky now

DELTA 1 DEB

Track DELTA 1 DEB now!
10-day predictions


NORAD ID: 10766
Int'l Code: 1976-077BP
Perigee: 1,508.8 km
Apogee: 1,593.2 km
Inclination: 102.3 °
Period: 117.0 minutes
Semi major axis: 7921 km
RCS: 0.3637 m2 (medium)
Launch date: July 29, 1976
Source: United States (US)
Launch site: AIR FORCE WESTERN TEST RANGE (AFWTR)

Note: This is SATELLITE DEBRIS
Your satellite tracking list
Your tracking list is empty




NASA's NSSDC Master Catalog

Two Line Element Set (TLE):
1 10766U 76077BP  24108.56102094 -.00000007  00000-0  32210-3 0  9998
2 10766 102.2952  78.8714 0053313 234.7113 237.7117 12.31262661145046
Source of the keplerian elements: AFSPC